Index of /20260429/WXO-DD/model_rdps/10km/06/031
Name Last modified Size Description
Parent Directory -
20260429T06Z_MSC_RDPS_AbsoluteVorticity_IsbL-0250_RLatLon0.09_PT031H.grib2 2026-04-29 08:48 625K
20260429T06Z_MSC_RDPS_AbsoluteVorticity_IsbL-0500_RLatLon0.09_PT031H.grib2 2026-04-29 08:48 574K
20260429T06Z_MSC_RDPS_AbsoluteVorticity_IsbL-0700_RLatLon0.09_PT031H.grib2 2026-04-29 08:48 621K
20260429T06Z_MSC_RDPS_AbsoluteVorticity_IsbL-0850_RLatLon0.09_PT031H.grib2 2026-04-29 08:48 779K
20260429T06Z_MSC_RDPS_AirTemp_AGL-120m_RLatLon0.09_PT031H.grib2 2026-04-29 08:48 381K
20260429T06Z_MSC_RDPS_AirTemp_AGL-2m_RLatLon0.09_PT031H.grib2 2026-04-29 08:48 637K
20260429T06Z_MSC_RDPS_AirTemp_AGL-40m_RLatLon0.09_PT031H.grib2 2026-04-29 08:48 398K
20260429T06Z_MSC_RDPS_AirTemp_AGL-80m_RLatLon0.09_PT031H.grib2 2026-04-29 08:48 389K
20260429T06Z_MSC_RDPS_AirTemp_IsbL-0001_RLatLon0.09_PT031H.grib2 2026-04-29 08:48 312K
20260429T06Z_MSC_RDPS_AirTemp_IsbL-0005_RLatLon0.09_PT031H.grib2 2026-04-29 08:48 292K
20260429T06Z_MSC_RDPS_AirTemp_IsbL-0010_RLatLon0.09_PT031H.grib2 2026-04-29 08:48 304K
20260429T06Z_MSC_RDPS_AirTemp_IsbL-0020_RLatLon0.09_PT031H.grib2 2026-04-29 08:48 318K
20260429T06Z_MSC_RDPS_AirTemp_IsbL-0030_RLatLon0.09_PT031H.grib2 2026-04-29 08:48 341K
20260429T06Z_MSC_RDPS_AirTemp_IsbL-0050_RLatLon0.09_PT031H.grib2 2026-04-29 08:48 315K
20260429T06Z_MSC_RDPS_AirTemp_IsbL-0100_RLatLon0.09_PT031H.grib2 2026-04-29 08:48 428K
20260429T06Z_MSC_RDPS_AirTemp_IsbL-0150_RLatLon0.09_PT031H.grib2 2026-04-29 08:48 426K
20260429T06Z_MSC_RDPS_AirTemp_IsbL-0175_RLatLon0.09_PT031H.grib2 2026-04-29 08:48 413K
20260429T06Z_MSC_RDPS_AirTemp_IsbL-0200_RLatLon0.09_PT031H.grib2 2026-04-29 08:48 417K
20260429T06Z_MSC_RDPS_AirTemp_IsbL-0225_RLatLon0.09_PT031H.grib2 2026-04-29 08:48 418K
20260429T06Z_MSC_RDPS_AirTemp_IsbL-0250_RLatLon0.09_PT031H.grib2 2026-04-29 08:48 428K
20260429T06Z_MSC_RDPS_AirTemp_IsbL-0275_RLatLon0.09_PT031H.grib2 2026-04-29 08:48 406K
20260429T06Z_MSC_RDPS_AirTemp_IsbL-0300_RLatLon0.09_PT031H.grib2 2026-04-29 08:48 436K
20260429T06Z_MSC_RDPS_AirTemp_IsbL-0350_RLatLon0.09_PT031H.grib2 2026-04-29 08:48 425K
20260429T06Z_MSC_RDPS_AirTemp_IsbL-0400_RLatLon0.09_PT031H.grib2 2026-04-29 08:48 426K
20260429T06Z_MSC_RDPS_AirTemp_IsbL-0450_RLatLon0.09_PT031H.grib2 2026-04-29 08:48 398K
20260429T06Z_MSC_RDPS_AirTemp_IsbL-0500_RLatLon0.09_PT031H.grib2 2026-04-29 08:48 409K
20260429T06Z_MSC_RDPS_AirTemp_IsbL-0550_RLatLon0.09_PT031H.grib2 2026-04-29 08:48 425K
20260429T06Z_MSC_RDPS_AirTemp_IsbL-0600_RLatLon0.09_PT031H.grib2 2026-04-29 08:48 446K
20260429T06Z_MSC_RDPS_AirTemp_IsbL-0650_RLatLon0.09_PT031H.grib2 2026-04-29 08:48 462K
20260429T06Z_MSC_RDPS_AirTemp_IsbL-0700_RLatLon0.09_PT031H.grib2 2026-04-29 08:48 484K
20260429T06Z_MSC_RDPS_AirTemp_IsbL-0750_RLatLon0.09_PT031H.grib2 2026-04-29 08:48 520K
20260429T06Z_MSC_RDPS_AirTemp_IsbL-0800_RLatLon0.09_PT031H.grib2 2026-04-29 08:48 449K
20260429T06Z_MSC_RDPS_AirTemp_IsbL-0850_RLatLon0.09_PT031H.grib2 2026-04-29 08:48 628K
20260429T06Z_MSC_RDPS_AirTemp_IsbL-0875_RLatLon0.09_PT031H.grib2 2026-04-29 08:48 652K
20260429T06Z_MSC_RDPS_AirTemp_IsbL-0900_RLatLon0.09_PT031H.grib2 2026-04-29 08:48 532K
20260429T06Z_MSC_RDPS_AirTemp_IsbL-0925_RLatLon0.09_PT031H.grib2 2026-04-29 08:48 529K
20260429T06Z_MSC_RDPS_AirTemp_IsbL-0950_RLatLon0.09_PT031H.grib2 2026-04-29 08:48 530K
20260429T06Z_MSC_RDPS_AirTemp_IsbL-0970_RLatLon0.09_PT031H.grib2 2026-04-29 08:48 524K
20260429T06Z_MSC_RDPS_AirTemp_IsbL-0985_RLatLon0.09_PT031H.grib2 2026-04-29 08:48 510K
20260429T06Z_MSC_RDPS_AirTemp_IsbL-1000_RLatLon0.09_PT031H.grib2 2026-04-29 08:48 493K
20260429T06Z_MSC_RDPS_AirTemp_IsbL-1015_RLatLon0.09_PT031H.grib2 2026-04-29 08:48 491K
20260429T06Z_MSC_RDPS_Albedo_Sfc_RLatLon0.09_PT031H.grib2 2026-04-29 08:48 156K
20260429T06Z_MSC_RDPS_CAPE_Sfc_RLatLon0.09_PT031H.grib2 2026-04-29 08:48 1.6M
20260429T06Z_MSC_RDPS_CIN_Sfc_RLatLon0.09_PT031H.grib2 2026-04-29 08:48 1.1M
20260429T06Z_MSC_RDPS_CloudWater_EAtm_RLatLon0.09_PT031H.grib2 2026-04-29 08:48 219K
20260429T06Z_MSC_RDPS_ConvectivePrecip-Accum_Sfc_RLatLon0.09_PT031H.grib2 2026-04-29 08:48 859K
20260429T06Z_MSC_RDPS_DewPointDepression_AGL-2m_RLatLon0.09_PT031H.grib2 2026-04-29 08:48 402K
20260429T06Z_MSC_RDPS_DewPointDepression_IsbL-0001_RLatLon0.09_PT031H.grib2 2026-04-29 08:48 193
20260429T06Z_MSC_RDPS_DewPointDepression_IsbL-0005_RLatLon0.09_PT031H.grib2 2026-04-29 08:48 193
20260429T06Z_MSC_RDPS_DewPointDepression_IsbL-0010_RLatLon0.09_PT031H.grib2 2026-04-29 08:48 193
20260429T06Z_MSC_RDPS_DewPointDepression_IsbL-0020_RLatLon0.09_PT031H.grib2 2026-04-29 08:48 193
20260429T06Z_MSC_RDPS_DewPointDepression_IsbL-0030_RLatLon0.09_PT031H.grib2 2026-04-29 08:48 193
20260429T06Z_MSC_RDPS_DewPointDepression_IsbL-0050_RLatLon0.09_PT031H.grib2 2026-04-29 08:48 84K
20260429T06Z_MSC_RDPS_DewPointDepression_IsbL-0100_RLatLon0.09_PT031H.grib2 2026-04-29 08:48 129K
20260429T06Z_MSC_RDPS_DewPointDepression_IsbL-0150_RLatLon0.09_PT031H.grib2 2026-04-29 08:48 148K
20260429T06Z_MSC_RDPS_DewPointDepression_IsbL-0175_RLatLon0.09_PT031H.grib2 2026-04-29 08:48 178K
20260429T06Z_MSC_RDPS_DewPointDepression_IsbL-0200_RLatLon0.09_PT031H.grib2 2026-04-29 08:48 217K
20260429T06Z_MSC_RDPS_DewPointDepression_IsbL-0225_RLatLon0.09_PT031H.grib2 2026-04-29 08:48 264K
20260429T06Z_MSC_RDPS_DewPointDepression_IsbL-0250_RLatLon0.09_PT031H.grib2 2026-04-29 08:48 304K
20260429T06Z_MSC_RDPS_DewPointDepression_IsbL-0275_RLatLon0.09_PT031H.grib2 2026-04-29 08:48 308K
20260429T06Z_MSC_RDPS_DewPointDepression_IsbL-0300_RLatLon0.09_PT031H.grib2 2026-04-29 08:48 328K
20260429T06Z_MSC_RDPS_DewPointDepression_IsbL-0350_RLatLon0.09_PT031H.grib2 2026-04-29 08:48 331K
20260429T06Z_MSC_RDPS_DewPointDepression_IsbL-0400_RLatLon0.09_PT031H.grib2 2026-04-29 08:48 339K
20260429T06Z_MSC_RDPS_DewPointDepression_IsbL-0450_RLatLon0.09_PT031H.grib2 2026-04-29 08:48 344K
20260429T06Z_MSC_RDPS_DewPointDepression_IsbL-0500_RLatLon0.09_PT031H.grib2 2026-04-29 08:48 350K
20260429T06Z_MSC_RDPS_DewPointDepression_IsbL-0550_RLatLon0.09_PT031H.grib2 2026-04-29 08:48 361K
20260429T06Z_MSC_RDPS_DewPointDepression_IsbL-0600_RLatLon0.09_PT031H.grib2 2026-04-29 08:48 375K
20260429T06Z_MSC_RDPS_DewPointDepression_IsbL-0650_RLatLon0.09_PT031H.grib2 2026-04-29 08:48 384K
20260429T06Z_MSC_RDPS_DewPointDepression_IsbL-0700_RLatLon0.09_PT031H.grib2 2026-04-29 08:48 392K
20260429T06Z_MSC_RDPS_DewPointDepression_IsbL-0750_RLatLon0.09_PT031H.grib2 2026-04-29 08:48 410K
20260429T06Z_MSC_RDPS_DewPointDepression_IsbL-0800_RLatLon0.09_PT031H.grib2 2026-04-29 08:48 438K
20260429T06Z_MSC_RDPS_DewPointDepression_IsbL-0850_RLatLon0.09_PT031H.grib2 2026-04-29 08:48 468K
20260429T06Z_MSC_RDPS_DewPointDepression_IsbL-0875_RLatLon0.09_PT031H.grib2 2026-04-29 08:48 470K
20260429T06Z_MSC_RDPS_DewPointDepression_IsbL-0900_RLatLon0.09_PT031H.grib2 2026-04-29 08:48 461K
20260429T06Z_MSC_RDPS_DewPointDepression_IsbL-0925_RLatLon0.09_PT031H.grib2 2026-04-29 08:48 447K
20260429T06Z_MSC_RDPS_DewPointDepression_IsbL-0950_RLatLon0.09_PT031H.grib2 2026-04-29 08:48 444K
20260429T06Z_MSC_RDPS_DewPointDepression_IsbL-0970_RLatLon0.09_PT031H.grib2 2026-04-29 08:48 438K
20260429T06Z_MSC_RDPS_DewPointDepression_IsbL-0985_RLatLon0.09_PT031H.grib2 2026-04-29 08:48 432K
20260429T06Z_MSC_RDPS_DewPointDepression_IsbL-1000_RLatLon0.09_PT031H.grib2 2026-04-29 08:48 426K
20260429T06Z_MSC_RDPS_DewPointDepression_IsbL-1015_RLatLon0.09_PT031H.grib2 2026-04-29 08:48 419K
20260429T06Z_MSC_RDPS_DewPoint_AGL-2m_RLatLon0.09_PT031H.grib2 2026-04-29 08:48 398K
20260429T06Z_MSC_RDPS_DownwardLongwaveRadiationFlux-Accum_Sfc_RLatLon0.09_PT031H.grib2 2026-04-29 08:48 474K
20260429T06Z_MSC_RDPS_DownwardShortwaveRadiationFlux-Accum_NTAtm_RLatLon0.09_PT031H.grib2 2026-04-29 08:48 110K
20260429T06Z_MSC_RDPS_DownwardShortwaveRadiationFlux-Accum_Sfc_RLatLon0.09_PT031H.grib2 2026-04-29 08:48 515K
20260429T06Z_MSC_RDPS_FreezingRain-Accum1h_Sfc_RLatLon0.09_PT031H.grib2 2026-04-29 08:48 48K
20260429T06Z_MSC_RDPS_FreezingRain-Accum_Sfc_RLatLon0.09_PT031H.grib2 2026-04-29 08:48 136K
20260429T06Z_MSC_RDPS_GeopotentialHeight_IsbL-0001_RLatLon0.09_PT031H.grib2 2026-04-29 08:48 314K
20260429T06Z_MSC_RDPS_GeopotentialHeight_IsbL-0005_RLatLon0.09_PT031H.grib2 2026-04-29 08:48 304K
20260429T06Z_MSC_RDPS_GeopotentialHeight_IsbL-0010_RLatLon0.09_PT031H.grib2 2026-04-29 08:48 306K
20260429T06Z_MSC_RDPS_GeopotentialHeight_IsbL-0020_RLatLon0.09_PT031H.grib2 2026-04-29 08:48 305K
20260429T06Z_MSC_RDPS_GeopotentialHeight_IsbL-0030_RLatLon0.09_PT031H.grib2 2026-04-29 08:48 306K
20260429T06Z_MSC_RDPS_GeopotentialHeight_IsbL-0050_RLatLon0.09_PT031H.grib2 2026-04-29 08:48 308K
20260429T06Z_MSC_RDPS_GeopotentialHeight_IsbL-0100_RLatLon0.09_PT031H.grib2 2026-04-29 08:48 285K
20260429T06Z_MSC_RDPS_GeopotentialHeight_IsbL-0150_RLatLon0.09_PT031H.grib2 2026-04-29 08:48 228K
20260429T06Z_MSC_RDPS_GeopotentialHeight_IsbL-0175_RLatLon0.09_PT031H.grib2 2026-04-29 08:48 230K
20260429T06Z_MSC_RDPS_GeopotentialHeight_IsbL-0200_RLatLon0.09_PT031H.grib2 2026-04-29 08:48 263K
20260429T06Z_MSC_RDPS_GeopotentialHeight_IsbL-0225_RLatLon0.09_PT031H.grib2 2026-04-29 08:48 266K
20260429T06Z_MSC_RDPS_GeopotentialHeight_IsbL-0250_RLatLon0.09_PT031H.grib2 2026-04-29 08:48 267K
20260429T06Z_MSC_RDPS_GeopotentialHeight_IsbL-0275_RLatLon0.09_PT031H.grib2 2026-04-29 08:48 266K
20260429T06Z_MSC_RDPS_GeopotentialHeight_IsbL-0300_RLatLon0.09_PT031H.grib2 2026-04-29 08:48 235K
20260429T06Z_MSC_RDPS_GeopotentialHeight_IsbL-0350_RLatLon0.09_PT031H.grib2 2026-04-29 08:48 232K
20260429T06Z_MSC_RDPS_GeopotentialHeight_IsbL-0400_RLatLon0.09_PT031H.grib2 2026-04-29 08:48 229K
20260429T06Z_MSC_RDPS_GeopotentialHeight_IsbL-0450_RLatLon0.09_PT031H.grib2 2026-04-29 08:48 296K
20260429T06Z_MSC_RDPS_GeopotentialHeight_IsbL-0500_RLatLon0.09_PT031H.grib2 2026-04-29 08:48 291K
20260429T06Z_MSC_RDPS_GeopotentialHeight_IsbL-0550_RLatLon0.09_PT031H.grib2 2026-04-29 08:48 287K
20260429T06Z_MSC_RDPS_GeopotentialHeight_IsbL-0600_RLatLon0.09_PT031H.grib2 2026-04-29 08:48 282K
20260429T06Z_MSC_RDPS_GeopotentialHeight_IsbL-0650_RLatLon0.09_PT031H.grib2 2026-04-29 08:48 253K
20260429T06Z_MSC_RDPS_GeopotentialHeight_IsbL-0700_RLatLon0.09_PT031H.grib2 2026-04-29 08:48 333K
20260429T06Z_MSC_RDPS_GeopotentialHeight_IsbL-0750_RLatLon0.09_PT031H.grib2 2026-04-29 08:48 335K
20260429T06Z_MSC_RDPS_GeopotentialHeight_IsbL-0800_RLatLon0.09_PT031H.grib2 2026-04-29 08:48 342K
20260429T06Z_MSC_RDPS_GeopotentialHeight_IsbL-0850_RLatLon0.09_PT031H.grib2 2026-04-29 08:48 385K
20260429T06Z_MSC_RDPS_GeopotentialHeight_IsbL-0875_RLatLon0.09_PT031H.grib2 2026-04-29 08:48 389K
20260429T06Z_MSC_RDPS_GeopotentialHeight_IsbL-0900_RLatLon0.09_PT031H.grib2 2026-04-29 08:48 393K
20260429T06Z_MSC_RDPS_GeopotentialHeight_IsbL-0925_RLatLon0.09_PT031H.grib2 2026-04-29 08:48 396K
20260429T06Z_MSC_RDPS_GeopotentialHeight_IsbL-0950_RLatLon0.09_PT031H.grib2 2026-04-29 08:48 400K
20260429T06Z_MSC_RDPS_GeopotentialHeight_IsbL-0970_RLatLon0.09_PT031H.grib2 2026-04-29 08:48 406K
20260429T06Z_MSC_RDPS_GeopotentialHeight_IsbL-0985_RLatLon0.09_PT031H.grib2 2026-04-29 08:48 415K
20260429T06Z_MSC_RDPS_GeopotentialHeight_IsbL-1000_RLatLon0.09_PT031H.grib2 2026-04-29 08:48 428K
20260429T06Z_MSC_RDPS_GeopotentialHeight_IsbL-1015_RLatLon0.09_PT031H.grib2 2026-04-29 08:48 444K
20260429T06Z_MSC_RDPS_Humidex_Sfc_RLatLon0.09_PT031H.grib2 2026-04-29 08:48 2.4M
20260429T06Z_MSC_RDPS_IcePellets-Accum1h_Sfc_RLatLon0.09_PT031H.grib2 2026-04-29 08:48 3.0K
20260429T06Z_MSC_RDPS_IcePellets-Accum_Sfc_RLatLon0.09_PT031H.grib2 2026-04-29 08:48 17K
20260429T06Z_MSC_RDPS_KIndex_Sfc_RLatLon0.09_PT031H.grib2 2026-04-29 08:48 2.5M
20260429T06Z_MSC_RDPS_LatentHeatNetFlux_Sfc_RLatLon0.09_PT031H.grib2 2026-04-29 08:48 428K
20260429T06Z_MSC_RDPS_LiftedIndex-MU-VT_IsbL-0500_RLatLon0.09_PT031H.grib2 2026-04-29 08:48 2.4M
20260429T06Z_MSC_RDPS_NetLongwaveRadiationFlux-Accum_Sfc_RLatLon0.09_PT031H.grib2 2026-04-29 08:48 608K
20260429T06Z_MSC_RDPS_NetShortwaveRadiationFlux-Accum_Sfc_RLatLon0.09_PT031H.grib2 2026-04-29 08:48 653K
20260429T06Z_MSC_RDPS_PlanetaryBoundaryLayerHeight_Sfc_RLatLon0.09_PT031H.grib2 2026-04-29 08:48 1.1M
20260429T06Z_MSC_RDPS_Precip-Accum1h_Sfc_RLatLon0.09_PT031H.grib2 2026-04-29 08:48 1.2M
20260429T06Z_MSC_RDPS_Precip-Accum_Sfc_RLatLon0.09_PT031H.grib2 2026-04-29 08:48 1.8M
20260429T06Z_MSC_RDPS_PrecipRate_Sfc_RLatLon0.09_PT031H.grib2 2026-04-29 08:48 181K
20260429T06Z_MSC_RDPS_PrecipType-Instant_Sfc_RLatLon0.09_PT031H.grib2 2026-04-29 08:48 573K
20260429T06Z_MSC_RDPS_Pressure-Trend3h_Sfc_RLatLon0.09_PT031H.grib2 2026-04-29 08:48 1.2M
20260429T06Z_MSC_RDPS_Pressure_MSL_RLatLon0.09_PT031H.grib2 2026-04-29 08:48 292K
20260429T06Z_MSC_RDPS_Pressure_PVU-1.5_RLatLon0.09_PT031H.grib2 2026-04-29 08:48 2.3M
20260429T06Z_MSC_RDPS_Pressure_PVU-1_RLatLon0.09_PT031H.grib2 2026-04-29 08:48 2.4M
20260429T06Z_MSC_RDPS_Pressure_PVU-2_RLatLon0.09_PT031H.grib2 2026-04-29 08:48 2.4M
20260429T06Z_MSC_RDPS_Pressure_Sfc_RLatLon0.09_PT031H.grib2 2026-04-29 08:48 501K
20260429T06Z_MSC_RDPS_RadiativeTemp_Sfc_RLatLon0.09_PT031H.grib2 2026-04-29 08:48 308K
20260429T06Z_MSC_RDPS_Rain-Accum1h_Sfc_RLatLon0.09_PT031H.grib2 2026-04-29 08:48 588K
20260429T06Z_MSC_RDPS_Rain-Accum_Sfc_RLatLon0.09_PT031H.grib2 2026-04-29 08:48 1.4M
20260429T06Z_MSC_RDPS_RelativeHumidity_AGL-2m_RLatLon0.09_PT031H.grib2 2026-04-29 08:48 1.0M
20260429T06Z_MSC_RDPS_RelativeHumidity_IsbL-0010_RLatLon0.09_PT031H.grib2 2026-04-29 08:48 644K
20260429T06Z_MSC_RDPS_RelativeHumidity_IsbL-0020_RLatLon0.09_PT031H.grib2 2026-04-29 08:48 691K
20260429T06Z_MSC_RDPS_RelativeHumidity_IsbL-0030_RLatLon0.09_PT031H.grib2 2026-04-29 08:48 606K
20260429T06Z_MSC_RDPS_RelativeHumidity_IsbL-0050_RLatLon0.09_PT031H.grib2 2026-04-29 08:48 322K
20260429T06Z_MSC_RDPS_RelativeHumidity_IsbL-0100_RLatLon0.09_PT031H.grib2 2026-04-29 08:48 286K
20260429T06Z_MSC_RDPS_RelativeHumidity_IsbL-0150_RLatLon0.09_PT031H.grib2 2026-04-29 08:48 408K
20260429T06Z_MSC_RDPS_RelativeHumidity_IsbL-0175_RLatLon0.09_PT031H.grib2 2026-04-29 08:48 475K
20260429T06Z_MSC_RDPS_RelativeHumidity_IsbL-0200_RLatLon0.09_PT031H.grib2 2026-04-29 08:48 555K
20260429T06Z_MSC_RDPS_RelativeHumidity_IsbL-0225_RLatLon0.09_PT031H.grib2 2026-04-29 08:48 629K
20260429T06Z_MSC_RDPS_RelativeHumidity_IsbL-0250_RLatLon0.09_PT031H.grib2 2026-04-29 08:48 705K
20260429T06Z_MSC_RDPS_RelativeHumidity_IsbL-0275_RLatLon0.09_PT031H.grib2 2026-04-29 08:48 729K
20260429T06Z_MSC_RDPS_RelativeHumidity_IsbL-0300_RLatLon0.09_PT031H.grib2 2026-04-29 08:48 773K
20260429T06Z_MSC_RDPS_RelativeHumidity_IsbL-0350_RLatLon0.09_PT031H.grib2 2026-04-29 08:48 790K
20260429T06Z_MSC_RDPS_RelativeHumidity_IsbL-0400_RLatLon0.09_PT031H.grib2 2026-04-29 08:48 799K
20260429T06Z_MSC_RDPS_RelativeHumidity_IsbL-0450_RLatLon0.09_PT031H.grib2 2026-04-29 08:48 802K
20260429T06Z_MSC_RDPS_RelativeHumidity_IsbL-0500_RLatLon0.09_PT031H.grib2 2026-04-29 08:48 808K
20260429T06Z_MSC_RDPS_RelativeHumidity_IsbL-0550_RLatLon0.09_PT031H.grib2 2026-04-29 08:48 825K
20260429T06Z_MSC_RDPS_RelativeHumidity_IsbL-0600_RLatLon0.09_PT031H.grib2 2026-04-29 08:48 848K
20260429T06Z_MSC_RDPS_RelativeHumidity_IsbL-0650_RLatLon0.09_PT031H.grib2 2026-04-29 08:48 865K
20260429T06Z_MSC_RDPS_RelativeHumidity_IsbL-0700_RLatLon0.09_PT031H.grib2 2026-04-29 08:48 885K
20260429T06Z_MSC_RDPS_RelativeHumidity_IsbL-0750_RLatLon0.09_PT031H.grib2 2026-04-29 08:48 931K
20260429T06Z_MSC_RDPS_RelativeHumidity_IsbL-0800_RLatLon0.09_PT031H.grib2 2026-04-29 08:48 1.0M
20260429T06Z_MSC_RDPS_RelativeHumidity_IsbL-0850_RLatLon0.09_PT031H.grib2 2026-04-29 08:48 1.0M
20260429T06Z_MSC_RDPS_RelativeHumidity_IsbL-0875_RLatLon0.09_PT031H.grib2 2026-04-29 08:48 1.1M
20260429T06Z_MSC_RDPS_RelativeHumidity_IsbL-0900_RLatLon0.09_PT031H.grib2 2026-04-29 08:48 1.1M
20260429T06Z_MSC_RDPS_RelativeHumidity_IsbL-0925_RLatLon0.09_PT031H.grib2 2026-04-29 08:48 1.1M
20260429T06Z_MSC_RDPS_RelativeHumidity_IsbL-0950_RLatLon0.09_PT031H.grib2 2026-04-29 08:48 1.1M
20260429T06Z_MSC_RDPS_RelativeHumidity_IsbL-0970_RLatLon0.09_PT031H.grib2 2026-04-29 08:48 1.1M
20260429T06Z_MSC_RDPS_RelativeHumidity_IsbL-0985_RLatLon0.09_PT031H.grib2 2026-04-29 08:48 1.0M
20260429T06Z_MSC_RDPS_RelativeHumidity_IsbL-1000_RLatLon0.09_PT031H.grib2 2026-04-29 08:48 1.0M
20260429T06Z_MSC_RDPS_RelativeHumidity_IsbL-1015_RLatLon0.09_PT031H.grib2 2026-04-29 08:48 1.0M
20260429T06Z_MSC_RDPS_Runoff-Accum_Sfc_RLatLon0.09_PT031H.grib2 2026-04-29 08:48 53K
20260429T06Z_MSC_RDPS_SWEATIndex_Sfc_RLatLon0.09_PT031H.grib2 2026-04-29 08:48 2.4M
20260429T06Z_MSC_RDPS_SeeingIndex_EAtm_RLatLon0.09_PT031H.grib2 2026-04-29 08:48 1.0M
20260429T06Z_MSC_RDPS_SensibleHeatNetFlux_Sfc_RLatLon0.09_PT031H.grib2 2026-04-29 08:48 315K
20260429T06Z_MSC_RDPS_ShowalterIndex_IsbL-0500_RLatLon0.09_PT031H.grib2 2026-04-29 08:48 2.6M
20260429T06Z_MSC_RDPS_SkyTransparencyIndex_EAtm_RLatLon0.09_PT031H.grib2 2026-04-29 08:48 687K
20260429T06Z_MSC_RDPS_Snow-Accum1h_Sfc_RLatLon0.09_PT031H.grib2 2026-04-29 08:48 455K
20260429T06Z_MSC_RDPS_Snow-Accum_Sfc_RLatLon0.09_PT031H.grib2 2026-04-29 08:48 721K
20260429T06Z_MSC_RDPS_SnowDensity_Sfc_RLatLon0.09_PT031H.grib2 2026-04-29 08:48 178K
20260429T06Z_MSC_RDPS_SnowDepth_Sfc_RLatLon0.09_PT031H.grib2 2026-04-29 08:48 685K
20260429T06Z_MSC_RDPS_SoilTemp_DBS-0to10cm_RLatLon0.09_PT031H.grib2 2026-04-29 08:48 227K
20260429T06Z_MSC_RDPS_SoilTemp_Sfc_RLatLon0.09_PT031H.grib2 2026-04-29 08:48 277K
20260429T06Z_MSC_RDPS_SoilVolumetricIceContent_Sfc_RLatLon0.09_PT031H.grib2 2026-04-29 08:48 166K
20260429T06Z_MSC_RDPS_SoilVolumetricWaterContent_DBS-0to10cm_RLatLon0.09_PT031H.grib2 2026-04-29 08:48 266K
20260429T06Z_MSC_RDPS_SoilVolumetricWaterContent_DBS-0to1cm_RLatLon0.09_PT031H.grib2 2026-04-29 08:48 335K
20260429T06Z_MSC_RDPS_SpecificHumidity_AGL-120m_RLatLon0.09_PT031H.grib2 2026-04-29 08:48 489K
20260429T06Z_MSC_RDPS_SpecificHumidity_AGL-2m_RLatLon0.09_PT031H.grib2 2026-04-29 08:48 656K
20260429T06Z_MSC_RDPS_SpecificHumidity_AGL-40m_RLatLon0.09_PT031H.grib2 2026-04-29 08:48 496K
20260429T06Z_MSC_RDPS_SpecificHumidity_AGL-80m_RLatLon0.09_PT031H.grib2 2026-04-29 08:48 492K
20260429T06Z_MSC_RDPS_SpecificHumidity_IsbL-0001_RLatLon0.09_PT031H.grib2 2026-04-29 08:48 348K
20260429T06Z_MSC_RDPS_SpecificHumidity_IsbL-0005_RLatLon0.09_PT031H.grib2 2026-04-29 08:48 362K
20260429T06Z_MSC_RDPS_SpecificHumidity_IsbL-0010_RLatLon0.09_PT031H.grib2 2026-04-29 08:48 400K
20260429T06Z_MSC_RDPS_SpecificHumidity_IsbL-0020_RLatLon0.09_PT031H.grib2 2026-04-29 08:48 390K
20260429T06Z_MSC_RDPS_SpecificHumidity_IsbL-0030_RLatLon0.09_PT031H.grib2 2026-04-29 08:48 371K
20260429T06Z_MSC_RDPS_SpecificHumidity_IsbL-0050_RLatLon0.09_PT031H.grib2 2026-04-29 08:48 462K
20260429T06Z_MSC_RDPS_SpecificHumidity_IsbL-0100_RLatLon0.09_PT031H.grib2 2026-04-29 08:48 353K
20260429T06Z_MSC_RDPS_SpecificHumidity_IsbL-0150_RLatLon0.09_PT031H.grib2 2026-04-29 08:48 454K
20260429T06Z_MSC_RDPS_SpecificHumidity_IsbL-0175_RLatLon0.09_PT031H.grib2 2026-04-29 08:48 533K
20260429T06Z_MSC_RDPS_SpecificHumidity_IsbL-0200_RLatLon0.09_PT031H.grib2 2026-04-29 08:48 448K
20260429T06Z_MSC_RDPS_SpecificHumidity_IsbL-0225_RLatLon0.09_PT031H.grib2 2026-04-29 08:48 456K
20260429T06Z_MSC_RDPS_SpecificHumidity_IsbL-0250_RLatLon0.09_PT031H.grib2 2026-04-29 08:48 520K
20260429T06Z_MSC_RDPS_SpecificHumidity_IsbL-0275_RLatLon0.09_PT031H.grib2 2026-04-29 08:48 477K
20260429T06Z_MSC_RDPS_SpecificHumidity_IsbL-0300_RLatLon0.09_PT031H.grib2 2026-04-29 08:48 450K
20260429T06Z_MSC_RDPS_SpecificHumidity_IsbL-0350_RLatLon0.09_PT031H.grib2 2026-04-29 08:48 442K
20260429T06Z_MSC_RDPS_SpecificHumidity_IsbL-0400_RLatLon0.09_PT031H.grib2 2026-04-29 08:48 520K
20260429T06Z_MSC_RDPS_SpecificHumidity_IsbL-0450_RLatLon0.09_PT031H.grib2 2026-04-29 08:48 454K
20260429T06Z_MSC_RDPS_SpecificHumidity_IsbL-0500_RLatLon0.09_PT031H.grib2 2026-04-29 08:48 507K
20260429T06Z_MSC_RDPS_SpecificHumidity_IsbL-0550_RLatLon0.09_PT031H.grib2 2026-04-29 08:48 581K
20260429T06Z_MSC_RDPS_SpecificHumidity_IsbL-0600_RLatLon0.09_PT031H.grib2 2026-04-29 08:48 637K
20260429T06Z_MSC_RDPS_SpecificHumidity_IsbL-0650_RLatLon0.09_PT031H.grib2 2026-04-29 08:48 557K
20260429T06Z_MSC_RDPS_SpecificHumidity_IsbL-0700_RLatLon0.09_PT031H.grib2 2026-04-29 08:48 596K
20260429T06Z_MSC_RDPS_SpecificHumidity_IsbL-0750_RLatLon0.09_PT031H.grib2 2026-04-29 08:48 649K
20260429T06Z_MSC_RDPS_SpecificHumidity_IsbL-0800_RLatLon0.09_PT031H.grib2 2026-04-29 08:48 713K
20260429T06Z_MSC_RDPS_SpecificHumidity_IsbL-0850_RLatLon0.09_PT031H.grib2 2026-04-29 08:48 794K
20260429T06Z_MSC_RDPS_SpecificHumidity_IsbL-0875_RLatLon0.09_PT031H.grib2 2026-04-29 08:48 820K
20260429T06Z_MSC_RDPS_SpecificHumidity_IsbL-0900_RLatLon0.09_PT031H.grib2 2026-04-29 08:48 833K
20260429T06Z_MSC_RDPS_SpecificHumidity_IsbL-0925_RLatLon0.09_PT031H.grib2 2026-04-29 08:48 835K
20260429T06Z_MSC_RDPS_SpecificHumidity_IsbL-0950_RLatLon0.09_PT031H.grib2 2026-04-29 08:48 839K
20260429T06Z_MSC_RDPS_SpecificHumidity_IsbL-0970_RLatLon0.09_PT031H.grib2 2026-04-29 08:48 833K
20260429T06Z_MSC_RDPS_SpecificHumidity_IsbL-0985_RLatLon0.09_PT031H.grib2 2026-04-29 08:48 823K
20260429T06Z_MSC_RDPS_SpecificHumidity_IsbL-1000_RLatLon0.09_PT031H.grib2 2026-04-29 08:48 674K
20260429T06Z_MSC_RDPS_SpecificHumidity_IsbL-1015_RLatLon0.09_PT031H.grib2 2026-04-29 08:48 664K
20260429T06Z_MSC_RDPS_SpecificHumidity_Sfc_RLatLon0.09_PT031H.grib2 2026-04-29 08:48 299K
20260429T06Z_MSC_RDPS_StormRelativeHelicity_EtaL-10000_RLatLon0.09_PT031H.grib2 2026-04-29 08:48 1.2M
20260429T06Z_MSC_RDPS_StormSeverityIndex_EtaL-10000_RLatLon0.09_PT031H.grib2 2026-04-29 08:48 1.2M
20260429T06Z_MSC_RDPS_Thickness_IsbL-0850to0700_RLatLon0.09_PT031H.grib2 2026-04-29 08:48 177K
20260429T06Z_MSC_RDPS_Thickness_IsbL-1000to0500_RLatLon0.09_PT031H.grib2 2026-04-29 08:48 198K
20260429T06Z_MSC_RDPS_Thickness_IsbL-1000to0850_RLatLon0.09_PT031H.grib2 2026-04-29 08:48 261K
20260429T06Z_MSC_RDPS_TotalCloudCover_Sfc_RLatLon0.09_PT031H.grib2 2026-04-29 08:48 661K
20260429T06Z_MSC_RDPS_TotalTotalsIndex_Sfc_RLatLon0.09_PT031H.grib2 2026-04-29 08:48 2.4M
20260429T06Z_MSC_RDPS_UVIndex-ClearSky_Sfc_RLatLon0.09_PT031H.grib2 2026-04-29 08:48 192K
20260429T06Z_MSC_RDPS_UVIndex_Sfc_RLatLon0.09_PT031H.grib2 2026-04-29 08:48 406K
20260429T06Z_MSC_RDPS_UpwardLongwaveRadiationFlux_NTAtm_RLatLon0.09_PT031H.grib2 2026-04-29 08:48 489K
20260429T06Z_MSC_RDPS_UpwardShortwaveRadiationFlux_NTAtm_RLatLon0.09_PT031H.grib2 2026-04-29 08:48 351K
20260429T06Z_MSC_RDPS_VerticalVelocity_IsbL-0250_RLatLon0.09_PT031H.grib2 2026-04-29 08:48 436K
20260429T06Z_MSC_RDPS_VerticalVelocity_IsbL-0500_RLatLon0.09_PT031H.grib2 2026-04-29 08:48 548K
20260429T06Z_MSC_RDPS_VerticalVelocity_IsbL-0700_RLatLon0.09_PT031H.grib2 2026-04-29 08:48 589K
20260429T06Z_MSC_RDPS_VerticalVelocity_IsbL-0850_RLatLon0.09_PT031H.grib2 2026-04-29 08:48 639K
20260429T06Z_MSC_RDPS_VerticalWindShear_EtaL-6500_RLatLon0.09_PT031H.grib2 2026-04-29 08:48 1.2M
20260429T06Z_MSC_RDPS_WindChill_Sfc_RLatLon0.09_PT031H.grib2 2026-04-29 08:48 1.1M
20260429T06Z_MSC_RDPS_WindDir_AGL-10m_RLatLon0.09_PT031H.grib2 2026-04-29 08:48 1.0M
20260429T06Z_MSC_RDPS_WindDir_AGL-120m_RLatLon0.09_PT031H.grib2 2026-04-29 08:48 623K
20260429T06Z_MSC_RDPS_WindDir_AGL-40m_RLatLon0.09_PT031H.grib2 2026-04-29 08:48 651K
20260429T06Z_MSC_RDPS_WindDir_AGL-80m_RLatLon0.09_PT031H.grib2 2026-04-29 08:48 634K
20260429T06Z_MSC_RDPS_WindDir_IsbL-0001_RLatLon0.09_PT031H.grib2 2026-04-29 08:48 305K
20260429T06Z_MSC_RDPS_WindDir_IsbL-0005_RLatLon0.09_PT031H.grib2 2026-04-29 08:48 367K
20260429T06Z_MSC_RDPS_WindDir_IsbL-0010_RLatLon0.09_PT031H.grib2 2026-04-29 08:48 385K
20260429T06Z_MSC_RDPS_WindDir_IsbL-0020_RLatLon0.09_PT031H.grib2 2026-04-29 08:48 415K
20260429T06Z_MSC_RDPS_WindDir_IsbL-0030_RLatLon0.09_PT031H.grib2 2026-04-29 08:48 422K
20260429T06Z_MSC_RDPS_WindDir_IsbL-0050_RLatLon0.09_PT031H.grib2 2026-04-29 08:48 442K
20260429T06Z_MSC_RDPS_WindDir_IsbL-0100_RLatLon0.09_PT031H.grib2 2026-04-29 08:48 444K
20260429T06Z_MSC_RDPS_WindDir_IsbL-0150_RLatLon0.09_PT031H.grib2 2026-04-29 08:48 429K
20260429T06Z_MSC_RDPS_WindDir_IsbL-0175_RLatLon0.09_PT031H.grib2 2026-04-29 08:48 447K
20260429T06Z_MSC_RDPS_WindDir_IsbL-0200_RLatLon0.09_PT031H.grib2 2026-04-29 08:48 458K
20260429T06Z_MSC_RDPS_WindDir_IsbL-0225_RLatLon0.09_PT031H.grib2 2026-04-29 08:48 464K
20260429T06Z_MSC_RDPS_WindDir_IsbL-0250_RLatLon0.09_PT031H.grib2 2026-04-29 08:48 465K
20260429T06Z_MSC_RDPS_WindDir_IsbL-0275_RLatLon0.09_PT031H.grib2 2026-04-29 08:48 486K
20260429T06Z_MSC_RDPS_WindDir_IsbL-0300_RLatLon0.09_PT031H.grib2 2026-04-29 08:48 482K
20260429T06Z_MSC_RDPS_WindDir_IsbL-0350_RLatLon0.09_PT031H.grib2 2026-04-29 08:48 502K
20260429T06Z_MSC_RDPS_WindDir_IsbL-0400_RLatLon0.09_PT031H.grib2 2026-04-29 08:48 512K
20260429T06Z_MSC_RDPS_WindDir_IsbL-0450_RLatLon0.09_PT031H.grib2 2026-04-29 08:48 522K
20260429T06Z_MSC_RDPS_WindDir_IsbL-0500_RLatLon0.09_PT031H.grib2 2026-04-29 08:48 536K
20260429T06Z_MSC_RDPS_WindDir_IsbL-0550_RLatLon0.09_PT031H.grib2 2026-04-29 08:48 558K
20260429T06Z_MSC_RDPS_WindDir_IsbL-0600_RLatLon0.09_PT031H.grib2 2026-04-29 08:48 594K
20260429T06Z_MSC_RDPS_WindDir_IsbL-0650_RLatLon0.09_PT031H.grib2 2026-04-29 08:48 645K
20260429T06Z_MSC_RDPS_WindDir_IsbL-0700_RLatLon0.09_PT031H.grib2 2026-04-29 08:48 687K
20260429T06Z_MSC_RDPS_WindDir_IsbL-0750_RLatLon0.09_PT031H.grib2 2026-04-29 08:48 732K
20260429T06Z_MSC_RDPS_WindDir_IsbL-0800_RLatLon0.09_PT031H.grib2 2026-04-29 08:48 790K
20260429T06Z_MSC_RDPS_WindDir_IsbL-0850_RLatLon0.09_PT031H.grib2 2026-04-29 08:48 867K
20260429T06Z_MSC_RDPS_WindDir_IsbL-0875_RLatLon0.09_PT031H.grib2 2026-04-29 08:48 897K
20260429T06Z_MSC_RDPS_WindDir_IsbL-0900_RLatLon0.09_PT031H.grib2 2026-04-29 08:48 916K
20260429T06Z_MSC_RDPS_WindDir_IsbL-0925_RLatLon0.09_PT031H.grib2 2026-04-29 08:48 927K
20260429T06Z_MSC_RDPS_WindDir_IsbL-0950_RLatLon0.09_PT031H.grib2 2026-04-29 08:48 928K
20260429T06Z_MSC_RDPS_WindDir_IsbL-0970_RLatLon0.09_PT031H.grib2 2026-04-29 08:48 937K
20260429T06Z_MSC_RDPS_WindDir_IsbL-0985_RLatLon0.09_PT031H.grib2 2026-04-29 08:48 947K
20260429T06Z_MSC_RDPS_WindDir_IsbL-1000_RLatLon0.09_PT031H.grib2 2026-04-29 08:48 960K
20260429T06Z_MSC_RDPS_WindDir_IsbL-1015_RLatLon0.09_PT031H.grib2 2026-04-29 08:48 1.0M
20260429T06Z_MSC_RDPS_WindGust-Max_AGL-10m_RLatLon0.09_PT031H.grib2 2026-04-29 08:48 1.0M
20260429T06Z_MSC_RDPS_WindGust-Min_AGL-10m_RLatLon0.09_PT031H.grib2 2026-04-29 08:48 1.0M
20260429T06Z_MSC_RDPS_WindGust_AGL-10m_RLatLon0.09_PT031H.grib2 2026-04-29 08:48 1.0M
20260429T06Z_MSC_RDPS_WindSpeed_AGL-10m_RLatLon0.09_PT031H.grib2 2026-04-29 08:48 844K
20260429T06Z_MSC_RDPS_WindSpeed_AGL-120m_RLatLon0.09_PT031H.grib2 2026-04-29 08:48 555K
20260429T06Z_MSC_RDPS_WindSpeed_AGL-40m_RLatLon0.09_PT031H.grib2 2026-04-29 08:48 544K
20260429T06Z_MSC_RDPS_WindSpeed_AGL-80m_RLatLon0.09_PT031H.grib2 2026-04-29 08:48 544K
20260429T06Z_MSC_RDPS_WindSpeed_IsbL-0001_RLatLon0.09_PT031H.grib2 2026-04-29 08:48 255K
20260429T06Z_MSC_RDPS_WindSpeed_IsbL-0005_RLatLon0.09_PT031H.grib2 2026-04-29 08:48 299K
20260429T06Z_MSC_RDPS_WindSpeed_IsbL-0010_RLatLon0.09_PT031H.grib2 2026-04-29 08:48 404K
20260429T06Z_MSC_RDPS_WindSpeed_IsbL-0020_RLatLon0.09_PT031H.grib2 2026-04-29 08:48 327K
20260429T06Z_MSC_RDPS_WindSpeed_IsbL-0030_RLatLon0.09_PT031H.grib2 2026-04-29 08:48 327K
20260429T06Z_MSC_RDPS_WindSpeed_IsbL-0050_RLatLon0.09_PT031H.grib2 2026-04-29 08:48 354K
20260429T06Z_MSC_RDPS_WindSpeed_IsbL-0100_RLatLon0.09_PT031H.grib2 2026-04-29 08:48 481K
20260429T06Z_MSC_RDPS_WindSpeed_IsbL-0150_RLatLon0.09_PT031H.grib2 2026-04-29 08:48 384K
20260429T06Z_MSC_RDPS_WindSpeed_IsbL-0175_RLatLon0.09_PT031H.grib2 2026-04-29 08:48 429K
20260429T06Z_MSC_RDPS_WindSpeed_IsbL-0200_RLatLon0.09_PT031H.grib2 2026-04-29 08:48 446K
20260429T06Z_MSC_RDPS_WindSpeed_IsbL-0225_RLatLon0.09_PT031H.grib2 2026-04-29 08:48 453K
20260429T06Z_MSC_RDPS_WindSpeed_IsbL-0250_RLatLon0.09_PT031H.grib2 2026-04-29 08:48 457K
20260429T06Z_MSC_RDPS_WindSpeed_IsbL-0275_RLatLon0.09_PT031H.grib2 2026-04-29 08:48 475K
20260429T06Z_MSC_RDPS_WindSpeed_IsbL-0300_RLatLon0.09_PT031H.grib2 2026-04-29 08:48 471K
20260429T06Z_MSC_RDPS_WindSpeed_IsbL-0350_RLatLon0.09_PT031H.grib2 2026-04-29 08:48 483K
20260429T06Z_MSC_RDPS_WindSpeed_IsbL-0400_RLatLon0.09_PT031H.grib2 2026-04-29 08:48 486K
20260429T06Z_MSC_RDPS_WindSpeed_IsbL-0450_RLatLon0.09_PT031H.grib2 2026-04-29 08:48 468K
20260429T06Z_MSC_RDPS_WindSpeed_IsbL-0500_RLatLon0.09_PT031H.grib2 2026-04-29 08:48 468K
20260429T06Z_MSC_RDPS_WindSpeed_IsbL-0550_RLatLon0.09_PT031H.grib2 2026-04-29 08:48 468K
20260429T06Z_MSC_RDPS_WindSpeed_IsbL-0600_RLatLon0.09_PT031H.grib2 2026-04-29 08:48 594K
20260429T06Z_MSC_RDPS_WindSpeed_IsbL-0650_RLatLon0.09_PT031H.grib2 2026-04-29 08:48 615K
20260429T06Z_MSC_RDPS_WindSpeed_IsbL-0700_RLatLon0.09_PT031H.grib2 2026-04-29 08:48 683K
20260429T06Z_MSC_RDPS_WindSpeed_IsbL-0750_RLatLon0.09_PT031H.grib2 2026-04-29 08:48 710K
20260429T06Z_MSC_RDPS_WindSpeed_IsbL-0800_RLatLon0.09_PT031H.grib2 2026-04-29 08:48 754K
20260429T06Z_MSC_RDPS_WindSpeed_IsbL-0850_RLatLon0.09_PT031H.grib2 2026-04-29 08:48 813K
20260429T06Z_MSC_RDPS_WindSpeed_IsbL-0875_RLatLon0.09_PT031H.grib2 2026-04-29 08:48 834K
20260429T06Z_MSC_RDPS_WindSpeed_IsbL-0900_RLatLon0.09_PT031H.grib2 2026-04-29 08:48 851K
20260429T06Z_MSC_RDPS_WindSpeed_IsbL-0925_RLatLon0.09_PT031H.grib2 2026-04-29 08:48 863K
20260429T06Z_MSC_RDPS_WindSpeed_IsbL-0950_RLatLon0.09_PT031H.grib2 2026-04-29 08:48 865K
20260429T06Z_MSC_RDPS_WindSpeed_IsbL-0970_RLatLon0.09_PT031H.grib2 2026-04-29 08:48 865K
20260429T06Z_MSC_RDPS_WindSpeed_IsbL-0985_RLatLon0.09_PT031H.grib2 2026-04-29 08:48 856K
20260429T06Z_MSC_RDPS_WindSpeed_IsbL-1000_RLatLon0.09_PT031H.grib2 2026-04-29 08:48 852K
20260429T06Z_MSC_RDPS_WindSpeed_IsbL-1015_RLatLon0.09_PT031H.grib2 2026-04-29 08:48 842K
20260429T06Z_MSC_RDPS_WindU_AGL-10m_RLatLon0.09_PT031H.grib2 2026-04-29 08:48 432K
20260429T06Z_MSC_RDPS_WindU_AGL-120m_RLatLon0.09_PT031H.grib2 2026-04-29 08:48 539K
20260429T06Z_MSC_RDPS_WindU_AGL-40m_RLatLon0.09_PT031H.grib2 2026-04-29 08:48 541K
20260429T06Z_MSC_RDPS_WindU_AGL-80m_RLatLon0.09_PT031H.grib2 2026-04-29 08:48 540K
20260429T06Z_MSC_RDPS_WindU_IsbL-0001_RLatLon0.09_PT031H.grib2 2026-04-29 08:48 293K
20260429T06Z_MSC_RDPS_WindU_IsbL-0005_RLatLon0.09_PT031H.grib2 2026-04-29 08:48 290K
20260429T06Z_MSC_RDPS_WindU_IsbL-0010_RLatLon0.09_PT031H.grib2 2026-04-29 08:48 301K
20260429T06Z_MSC_RDPS_WindU_IsbL-0020_RLatLon0.09_PT031H.grib2 2026-04-29 08:48 316K
20260429T06Z_MSC_RDPS_WindU_IsbL-0030_RLatLon0.09_PT031H.grib2 2026-04-29 08:48 317K
20260429T06Z_MSC_RDPS_WindU_IsbL-0050_RLatLon0.09_PT031H.grib2 2026-04-29 08:48 346K
20260429T06Z_MSC_RDPS_WindU_IsbL-0100_RLatLon0.09_PT031H.grib2 2026-04-29 08:48 437K
20260429T06Z_MSC_RDPS_WindU_IsbL-0150_RLatLon0.09_PT031H.grib2 2026-04-29 08:48 400K
20260429T06Z_MSC_RDPS_WindU_IsbL-0175_RLatLon0.09_PT031H.grib2 2026-04-29 08:48 423K
20260429T06Z_MSC_RDPS_WindU_IsbL-0200_RLatLon0.09_PT031H.grib2 2026-04-29 08:48 339K
20260429T06Z_MSC_RDPS_WindU_IsbL-0225_RLatLon0.09_PT031H.grib2 2026-04-29 08:48 344K
20260429T06Z_MSC_RDPS_WindU_IsbL-0250_RLatLon0.09_PT031H.grib2 2026-04-29 08:48 346K
20260429T06Z_MSC_RDPS_WindU_IsbL-0275_RLatLon0.09_PT031H.grib2 2026-04-29 08:48 361K
20260429T06Z_MSC_RDPS_WindU_IsbL-0300_RLatLon0.09_PT031H.grib2 2026-04-29 08:48 356K
20260429T06Z_MSC_RDPS_WindU_IsbL-0350_RLatLon0.09_PT031H.grib2 2026-04-29 08:48 471K
20260429T06Z_MSC_RDPS_WindU_IsbL-0400_RLatLon0.09_PT031H.grib2 2026-04-29 08:48 474K
20260429T06Z_MSC_RDPS_WindU_IsbL-0450_RLatLon0.09_PT031H.grib2 2026-04-29 08:48 472K
20260429T06Z_MSC_RDPS_WindU_IsbL-0500_RLatLon0.09_PT031H.grib2 2026-04-29 08:48 473K
20260429T06Z_MSC_RDPS_WindU_IsbL-0550_RLatLon0.09_PT031H.grib2 2026-04-29 08:48 472K
20260429T06Z_MSC_RDPS_WindU_IsbL-0600_RLatLon0.09_PT031H.grib2 2026-04-29 08:48 463K
20260429T06Z_MSC_RDPS_WindU_IsbL-0650_RLatLon0.09_PT031H.grib2 2026-04-29 08:48 483K
20260429T06Z_MSC_RDPS_WindU_IsbL-0700_RLatLon0.09_PT031H.grib2 2026-04-29 08:48 505K
20260429T06Z_MSC_RDPS_WindU_IsbL-0750_RLatLon0.09_PT031H.grib2 2026-04-29 08:48 531K
20260429T06Z_MSC_RDPS_WindU_IsbL-0800_RLatLon0.09_PT031H.grib2 2026-04-29 08:48 570K
20260429T06Z_MSC_RDPS_WindU_IsbL-0850_RLatLon0.09_PT031H.grib2 2026-04-29 08:48 756K
20260429T06Z_MSC_RDPS_WindU_IsbL-0875_RLatLon0.09_PT031H.grib2 2026-04-29 08:48 639K
20260429T06Z_MSC_RDPS_WindU_IsbL-0900_RLatLon0.09_PT031H.grib2 2026-04-29 08:48 652K
20260429T06Z_MSC_RDPS_WindU_IsbL-0925_RLatLon0.09_PT031H.grib2 2026-04-29 08:48 659K
20260429T06Z_MSC_RDPS_WindU_IsbL-0950_RLatLon0.09_PT031H.grib2 2026-04-29 08:48 657K
20260429T06Z_MSC_RDPS_WindU_IsbL-0970_RLatLon0.09_PT031H.grib2 2026-04-29 08:48 797K
20260429T06Z_MSC_RDPS_WindU_IsbL-0985_RLatLon0.09_PT031H.grib2 2026-04-29 08:48 793K
20260429T06Z_MSC_RDPS_WindU_IsbL-1000_RLatLon0.09_PT031H.grib2 2026-04-29 08:48 789K
20260429T06Z_MSC_RDPS_WindU_IsbL-1015_RLatLon0.09_PT031H.grib2 2026-04-29 08:48 829K
20260429T06Z_MSC_RDPS_WindV_AGL-10m_RLatLon0.09_PT031H.grib2 2026-04-29 08:48 433K
20260429T06Z_MSC_RDPS_WindV_AGL-120m_RLatLon0.09_PT031H.grib2 2026-04-29 08:48 538K
20260429T06Z_MSC_RDPS_WindV_AGL-40m_RLatLon0.09_PT031H.grib2 2026-04-29 08:48 539K
20260429T06Z_MSC_RDPS_WindV_AGL-80m_RLatLon0.09_PT031H.grib2 2026-04-29 08:48 538K
20260429T06Z_MSC_RDPS_WindV_IsbL-0001_RLatLon0.09_PT031H.grib2 2026-04-29 08:48 246K
20260429T06Z_MSC_RDPS_WindV_IsbL-0005_RLatLon0.09_PT031H.grib2 2026-04-29 08:48 290K
20260429T06Z_MSC_RDPS_WindV_IsbL-0010_RLatLon0.09_PT031H.grib2 2026-04-29 08:48 304K
20260429T06Z_MSC_RDPS_WindV_IsbL-0020_RLatLon0.09_PT031H.grib2 2026-04-29 08:48 321K
20260429T06Z_MSC_RDPS_WindV_IsbL-0030_RLatLon0.09_PT031H.grib2 2026-04-29 08:48 321K
20260429T06Z_MSC_RDPS_WindV_IsbL-0050_RLatLon0.09_PT031H.grib2 2026-04-29 08:48 348K
20260429T06Z_MSC_RDPS_WindV_IsbL-0100_RLatLon0.09_PT031H.grib2 2026-04-29 08:48 432K
20260429T06Z_MSC_RDPS_WindV_IsbL-0150_RLatLon0.09_PT031H.grib2 2026-04-29 08:48 397K
20260429T06Z_MSC_RDPS_WindV_IsbL-0175_RLatLon0.09_PT031H.grib2 2026-04-29 08:48 421K
20260429T06Z_MSC_RDPS_WindV_IsbL-0200_RLatLon0.09_PT031H.grib2 2026-04-29 08:48 336K
20260429T06Z_MSC_RDPS_WindV_IsbL-0225_RLatLon0.09_PT031H.grib2 2026-04-29 08:48 342K
20260429T06Z_MSC_RDPS_WindV_IsbL-0250_RLatLon0.09_PT031H.grib2 2026-04-29 08:48 344K
20260429T06Z_MSC_RDPS_WindV_IsbL-0275_RLatLon0.09_PT031H.grib2 2026-04-29 08:48 360K
20260429T06Z_MSC_RDPS_WindV_IsbL-0300_RLatLon0.09_PT031H.grib2 2026-04-29 08:48 355K
20260429T06Z_MSC_RDPS_WindV_IsbL-0350_RLatLon0.09_PT031H.grib2 2026-04-29 08:48 364K
20260429T06Z_MSC_RDPS_WindV_IsbL-0400_RLatLon0.09_PT031H.grib2 2026-04-29 08:48 470K
20260429T06Z_MSC_RDPS_WindV_IsbL-0450_RLatLon0.09_PT031H.grib2 2026-04-29 08:48 470K
20260429T06Z_MSC_RDPS_WindV_IsbL-0500_RLatLon0.09_PT031H.grib2 2026-04-29 08:48 470K
20260429T06Z_MSC_RDPS_WindV_IsbL-0550_RLatLon0.09_PT031H.grib2 2026-04-29 08:48 470K
20260429T06Z_MSC_RDPS_WindV_IsbL-0600_RLatLon0.09_PT031H.grib2 2026-04-29 08:48 461K
20260429T06Z_MSC_RDPS_WindV_IsbL-0650_RLatLon0.09_PT031H.grib2 2026-04-29 08:48 481K
20260429T06Z_MSC_RDPS_WindV_IsbL-0700_RLatLon0.09_PT031H.grib2 2026-04-29 08:48 501K
20260429T06Z_MSC_RDPS_WindV_IsbL-0750_RLatLon0.09_PT031H.grib2 2026-04-29 08:48 526K
20260429T06Z_MSC_RDPS_WindV_IsbL-0800_RLatLon0.09_PT031H.grib2 2026-04-29 08:48 693K
20260429T06Z_MSC_RDPS_WindV_IsbL-0850_RLatLon0.09_PT031H.grib2 2026-04-29 08:48 752K
20260429T06Z_MSC_RDPS_WindV_IsbL-0875_RLatLon0.09_PT031H.grib2 2026-04-29 08:48 773K
20260429T06Z_MSC_RDPS_WindV_IsbL-0900_RLatLon0.09_PT031H.grib2 2026-04-29 08:48 650K
20260429T06Z_MSC_RDPS_WindV_IsbL-0925_RLatLon0.09_PT031H.grib2 2026-04-29 08:48 799K
20260429T06Z_MSC_RDPS_WindV_IsbL-0950_RLatLon0.09_PT031H.grib2 2026-04-29 08:48 798K
20260429T06Z_MSC_RDPS_WindV_IsbL-0970_RLatLon0.09_PT031H.grib2 2026-04-29 08:48 797K
20260429T06Z_MSC_RDPS_WindV_IsbL-0985_RLatLon0.09_PT031H.grib2 2026-04-29 08:48 839K
20260429T06Z_MSC_RDPS_WindV_IsbL-1000_RLatLon0.09_PT031H.grib2 2026-04-29 08:48 834K
20260429T06Z_MSC_RDPS_WindV_IsbL-1015_RLatLon0.09_PT031H.grib2 2026-04-29 08:48 826K